TimeEDT,TemperatureF,Dew PointF,Humidity,Sea Level PressureIn,VisibilityMPH,Wind Direction,Wind SpeedMPH,Gust SpeedMPH,PrecipitationIn,Events,Conditions,WindDirDegrees,DateUTC
12:15 AM,64.9,63.5,95,29.90,10.0,Calm,Calm,-,N/A,,Scattered Clouds,0,2012-10-03 04:15:00
12:35 AM,65.3,63.5,94,29.90,10.0,Calm,Calm,-,N/A,,Mostly Cloudy,0,2012-10-03 04:35:00
12:55 AM,65.5,63.5,93,29.91,10.0,Calm,Calm,-,N/A,,Overcast,0,2012-10-03 04:55:00
1:15 AM,65.5,63.1,92,29.92,10.0,Calm,Calm,-,N/A,,Mostly Cloudy,0,2012-10-03 05:15:00
1:35 AM,65.7,63.7,93,29.93,10.0,SW,4.6,-,N/A,,Scattered Clouds,230,2012-10-03 05:35:00
1:55 AM,66.0,63.5,92,29.94,10.0,SW,5.8,-,N/A,,Scattered Clouds,230,2012-10-03 05:55:00
2:15 AM,65.7,62.1,88,29.94,10.0,WSW,5.8,-,N/A,,Scattered Clouds,250,2012-10-03 06:15:00
2:35 AM,65.5,61.5,87,29.95,10.0,WSW,5.8,-,N/A,,Mostly Cloudy,240,2012-10-03 06:35:00
2:55 AM,65.3,61.0,86,29.97,10.0,SW,5.8,-,N/A,,Mostly Cloudy,230,2012-10-03 06:55:00
3:15 AM,65.3,60.8,85,29.97,10.0,WSW,5.8,-,N/A,,Mostly Cloudy,240,2012-10-03 07:15:00
3:35 AM,64.4,60.4,87,29.98,10.0,WSW,4.6,-,N/A,,Mostly Cloudy,240,2012-10-03 07:35:00
3:55 AM,64.4,60.8,88,29.99,10.0,SW,3.5,-,N/A,,Overcast,230,2012-10-03 07:55:00
4:15 AM,64.4,60.4,87,29.99,10.0,SW,4.6,-,N/A,,Overcast,230,2012-10-03 08:15:00
4:35 AM,64.2,59.4,84,30.00,10.0,WSW,4.6,-,N/A,,Overcast,240,2012-10-03 08:35:00
4:55 AM,63.5,59.2,86,30.01,10.0,SW,3.5,-,N/A,,Overcast,230,2012-10-03 08:55:00
5:15 AM,63.7,58.6,84,30.00,10.0,Calm,Calm,-,N/A,,Mostly Cloudy,0,2012-10-03 09:15:00
5:35 AM,62.6,59.0,88,30.01,10.0,Calm,Calm,-,N/A,,Mostly Cloudy,0,2012-10-03 09:35:00
5:55 AM,63.5,58.6,84,30.02,10.0,Calm,Calm,-,N/A,,Overcast,0,2012-10-03 09:55:00
6:15 AM,63.3,59.0,86,30.02,10.0,Calm,Calm,-,N/A,,Overcast,0,2012-10-03 10:15:00
6:35 AM,63.5,59.4,86,30.03,10.0,Calm,Calm,-,N/A,,Overcast,0,2012-10-03 10:35:00
6:55 AM,63.1,59.2,87,30.04,10.0,SSW,3.5,-,N/A,,Overcast,210,2012-10-03 10:55:00
7:15 AM,63.1,59.2,87,30.04,10.0,SSW,3.5,-,N/A,,Overcast,200,2012-10-03 11:15:00
7:35 AM,62.6,59.0,88,30.06,10.0,Calm,Calm,-,N/A,,Mostly Cloudy,0,2012-10-03 11:35:00
7:55 AM,62.1,58.8,89,30.06,10.0,Calm,Calm,-,N/A,,Scattered Clouds,0,2012-10-03 11:55:00
8:15 AM,61.9,59.0,90,30.07,10.0,South,4.6,-,N/A,,Scattered Clouds,180,2012-10-03 12:15:00
8:35 AM,62.6,59.0,88,30.08,10.0,SSW,4.6,-,N/A,,Scattered Clouds,200,2012-10-03 12:35:00
8:55 AM,63.5,59.0,85,30.08,10.0,SSW,5.8,-,N/A,,Clear,210,2012-10-03 12:55:00
9:15 AM,63.9,58.5,83,30.09,10.0,SSW,3.5,-,N/A,,Clear,200,2012-10-03 13:15:00
9:35 AM,65.3,58.6,79,30.09,10.0,SSW,8.1,-,N/A,,Clear,210,2012-10-03 13:35:00
9:55 AM,65.5,56.5,73,30.10,10.0,SSW,10.4,-,N/A,,Clear,210,2012-10-03 13:55:00
10:15 AM,66.6,54.9,66,30.10,10.0,SW,9.2,-,N/A,,Clear,230,2012-10-03 14:15:00
10:35 AM,66.4,54.3,65,30.11,10.0,WSW,9.2,-,N/A,,Clear,240,2012-10-03 14:35:00
10:55 AM,67.1,54.3,63,30.11,10.0,SSW,9.2,-,N/A,,Clear,210,2012-10-03 14:55:00
11:15 AM,67.6,55.0,64,30.11,10.0,WSW,8.1,-,N/A,,Clear,240,2012-10-03 15:15:00
11:55 AM,68.5,52.0,55,30.11,10.0,SSW,6.9,-,N/A,,Clear,210,2012-10-03 15:55:00
12:15 PM,70.0,52.2,53,30.11,10.0,SW,9.2,16.1,N/A,,Clear,230,2012-10-03 16:15:00
12:35 PM,69.1,52.9,56,30.11,10.0,SSW,8.1,-,N/A,,Clear,210,2012-10-03 16:35:00
12:55 PM,70.7,52.7,53,30.11,10.0,SSW,8.1,17.3,N/A,,Clear,210,2012-10-03 16:55:00
1:15 PM,70.9,54.0,55,30.11,10.0,WSW,11.5,-,N/A,,Scattered Clouds,250,2012-10-03 17:15:00
1:35 PM,71.6,52.9,52,30.11,10.0,WSW,10.4,16.1,N/A,,Scattered Clouds,240,2012-10-03 17:35:00
1:55 PM,71.4,51.6,50,30.10,10.0,WSW,17.3,-,N/A,,Scattered Clouds,250,2012-10-03 17:55:00
2:15 PM,71.6,52.0,50,30.09,10.0,West,11.5,17.3,N/A,,Clear,260,2012-10-03 18:15:00
2:35 PM,72.3,52.7,50,30.09,10.0,WSW,12.7,18.4,N/A,,Clear,250,2012-10-03 18:35:00
3:15 PM,72.7,52.9,50,30.09,10.0,WSW,8.1,-,N/A,,Clear,240,2012-10-03 19:15:00
3:35 PM,72.9,52.2,48,30.09,10.0,SW,4.6,-,N/A,,Clear,220,2012-10-03 19:35:00
3:55 PM,73.4,51.4,46,30.09,10.0,SSW,6.9,-,N/A,,Clear,210,2012-10-03 19:55:00
4:15 PM,73.2,50.9,45,30.08,10.0,West,3.5,-,N/A,,Clear,260,2012-10-03 20:15:00
4:35 PM,73.2,51.1,46,30.08,10.0,SW,5.8,-,N/A,,Clear,230,2012-10-03 20:35:00
4:55 PM,73.4,50.9,45,30.08,10.0,SW,5.8,-,N/A,,Clear,220,2012-10-03 20:55:00
5:15 PM,72.9,50.5,45,30.08,10.0,SW,4.6,-,N/A,,Clear,230,2012-10-03 21:15:00
5:35 PM,71.6,51.3,49,30.09,10.0,SSW,3.5,-,N/A,,Clear,210,2012-10-03 21:35:00
5:55 PM,70.9,51.6,50,30.09,10.0,SW,3.5,-,N/A,,Clear,220,2012-10-03 21:55:00
6:15 PM,68.9,54.3,60,30.10,10.0,West,3.5,-,N/A,,Clear,270,2012-10-03 22:15:00
6:35 PM,68.0,54.0,61,30.09,10.0,Calm,Calm,-,N/A,,Clear,0,2012-10-03 22:35:00
6:55 PM,66.4,56.1,69,30.10,10.0,Calm,Calm,-,N/A,,Clear,0,2012-10-03 22:55:00
7:15 PM,64.9,55.4,71,30.10,10.0,Calm,Calm,-,N/A,,Clear,0,2012-10-03 23:15:00
7:35 PM,63.9,56.1,76,30.10,10.0,Calm,Calm,-,N/A,,Clear,0,2012-10-03 23:35:00
7:55 PM,62.8,56.3,79,30.11,10.0,Calm,Calm,-,N/A,,Clear,0,2012-10-03 23:55:00
8:15 PM,62.2,55.6,79,30.11,10.0,Calm,Calm,-,N/A,,Clear,0,2012-10-04 00:15:00
8:35 PM,61.3,55.8,82,30.12,10.0,Calm,Calm,-,N/A,,Clear,0,2012-10-04 00:35:00
8:55 PM,60.8,55.6,83,30.12,10.0,Calm,Calm,-,N/A,,Clear,0,2012-10-04 00:55:00
9:15 PM,59.5,55.9,88,30.13,10.0,Calm,Calm,-,N/A,,Clear,0,2012-10-04 01:15:00
9:35 PM,59.7,56.1,88,30.14,10.0,Calm,Calm,-,N/A,,Clear,0,2012-10-04 01:35:00
9:55 PM,59.0,55.8,89,30.14,10.0,Calm,Calm,-,N/A,,Clear,0,2012-10-04 01:55:00
10:15 PM,58.1,55.6,91,30.14,10.0,Calm,Calm,-,N/A,,Clear,0,2012-10-04 02:15:00
10:35 PM,56.5,54.0,91,30.14,10.0,Calm,Calm,-,N/A,,Clear,0,2012-10-04 02:35:00
10:55 PM,56.5,54.0,91,30.15,10.0,Calm,Calm,-,N/A,,Clear,0,2012-10-04 02:55:00
11:15 PM,55.9,54.0,93,30.15,10.0,Calm,Calm,-,N/A,,Clear,0,2012-10-04 03:15:00
11:35 PM,56.8,54.5,92,30.16,10.0,Calm,Calm,-,N/A,,Clear,0,2012-10-04 03:35:00